Terminal Aerodrome Forecast
Issued by NWS

Home | Current Version | Previous Version | Text Only | Print | Product List | Glossary On
Versions: 1 2 3 4 5 6 7 8 9 10 11 12 13 14 15
000
FTUS42 KMLB 012320
TAFFPR
TAF
KFPR 012320Z 0200/0224 21004KT P6SM FEW050 OVC100
      TEMPO 0200/0202 5SM -RA BR BKN030 OVC050
     FM020300 19003KT P6SM SCT040 OVC100
     FM021400 19008KT P6SM SCT030 BKN120
     FM021600 21012KT P6SM VCSH SCT040 BKN080
     FM022200 23007KT P6SM SCT030 OVC060=

USA.gov is the U.S. government's official web portal to all federal, state and local government web resources and services.